This is the latest recevied weather packets stored in our database for station/object CW79215. If no packets are shown the sender has not sent any weather packets the latest 10 day(s).
| Time | Temp. | Humidity | Pressure | Rain* | Wind** | Luminosity | Snow |
|---|---|---|---|---|---|---|---|
| 1777535541 | 19.44° C | 27% | 1026.5 hPa | - | - | - | - |
| 1777534641 | 19.44° C | 27% | 1026.5 hPa | - | - | - | - |
| 1777533741 | 19.44° C | 23% | 1026.4 hPa | - | - | - | - |
| 1777532841 | 18.89° C | 27% | 1026.4 hPa | - | - | - | - |
| 1777531941 | 17.78° C | 28% | 1026.5 hPa | - | - | - | - |
| 1777531036 | 17.78° C | 28% | 1026.4 hPa | - | - | - | - |
| 1777530136 | 17.22° C | 32% | 1026.5 hPa | - | - | - | - |
| 1777529236 | 16.67° C | 29% | 1026.5 hPa | - | - | - | - |
| 1777528336 | 12.78° C | 34% | 1026.6 hPa | - | - | - | - |
| 1777527436 | 12.22° C | 33% | 1026.6 hPa | - | - | - | - |
| 1777526535 | 12.22° C | 35% | 1026.4 hPa | - | - | - | - |
| 1777525635 | 11.11° C | 37% | 1026.3 hPa | - | - | - | - |
| 1777524735 | 10.56° C | 37% | 1026.4 hPa | - | - | - | - |
| 1777523835 | 10.56° C | 40% | 1026.3 hPa | - | - | - | - |
| 1777522935 | 11.11° C | 37% | 1026.3 hPa | - | - | - | - |
| 1777522035 | 10.56° C | 37% | 1026.1 hPa | - | - | - | - |
| 1777521135 | 10.56° C | 38% | 1026.1 hPa | - | - | - | - |
| 1777520235 | 11.11° C | 36% | 1026 hPa | - | - | - | - |
| 1777519335 | 10.56° C | 36% | 1026.1 hPa | - | - | - | - |
| 1777518434 | 10.56° C | 37% | 1026.1 hPa | - | - | - | - |
| 1777517534 | 11.11° C | 46% | 1026 hPa | - | - | - | - |
| 1777516634 | 11.67° C | 35% | 1025.9 hPa | - | - | - | - |
| 1777515734 | 10.56° C | 39% | 1026 hPa | - | - | - | - |
| 1777514834 | 11.11° C | 38% | 1025.9 hPa | - | - | - | - |
| 1777513934 | 10° C | 37% | 1026 hPa | - | - | - | - |
* Rain since midnight (hover to see other rain measurements)
** Current wind speed in m/s (hover to see current wind gust speed)